This demonstration page uses our WeatherBlox Daily Observations layout. Learn more.

Left ArrowRight Arrow

Hourly Observations for June 26, 2022

Temp ( °F °C ) Dew Point ( °F °C ) Humidity (%) Winds ( mph kmh ) Pressure ( in mb ) Visibility ( mi km ) Precip ( " mm )
12:53 am 00:53 Clear 76 24.4 45 7.2 33 33 Calm 29.87 1012 10 16 0.00 0.00
1:53 am 01:53 Clear 74 23.3 45 7.2 36 36 WNW 5 7 29.88 1012 10 16 0.00 0.00
2:53 am 02:53 Clear 72 22.2 46 7.8 40 40 NW 3 6 29.88 1012 10 16 0.00 0.00
3:53 am 03:53 Clear 70 21.1 47 8.3 44 44 Calm 29.90 1013 10 16 0.00 0.00
4:53 am 04:53 Clear 67 19.4 48 8.9 51 51 Calm 29.91 1013 10 16 0.00 0.00
5:53 am 05:53 Sunny 66 18.9 47 8.3 50 50 Calm 29.92 1013 10 16 0.00 0.00
6:53 am 06:53 Sunny 70 21.1 48 8.9 46 46 Calm 29.94 1014 10 16 0.00 0.00
7:53 am 07:53 Sunny 77 25 48 8.9 36 36 Calm 29.94 1014 10 16 0.00 0.00
8:53 am 08:53 Sunny 83 28.3 50 10 32 32 Calm 29.94 1014 10 16 0.00 0.00
9:53 am 09:53 Sunny 87 30.6 44 6.7 22 22 Calm 29.94 1014 10 16 0.00 0.00
10:53 am 10:53 Sunny 92 33.3 43 6.1 18 18 SW 6 9 29.93 1014 10 16 0.00 0.00
11:53 am 11:53 Sunny 95 35 41 5 15 15 Calm 29.93 1014 10 16 0.00 0.00
12:53 pm 12:53 Sunny 99 37.2 41 5 14 14 SE 6 9 29.92 1013 10 16 0.00 0.00
1:53 pm 13:53 Sunny 102 38.9 40 4.4 12 12 S 6 9 29.90 1013 10 16 0.00 0.00
2:53 pm 14:53 Sunny 102 38.9 34 1.1 9 9 S 7 11 29.88 1012 10 16 0.00 0.00
3:53 pm 15:53 Sunny 104 40 34 1.1 9 9 S 13 20 29.88 1012 10 16 0.00 0.00
4:53 pm 16:53 Sunny 104 40 30 -1.1 7 7 S 12 19 29.87 1012 10 16 0.00 0.00
5:53 pm 17:53 Sunny 104 40 27 -2.8 7 7 S 16 26 29.86 1011 10 16 0.00 0.00
6:53 pm 18:53 Sunny 102 38.9 29 -1.7 8 8 SSE 12 19 29.86 1011 10 16 0.00 0.00
7:53 pm 19:53 Sunny 99 37.2 33 0.6 10 10 S 10 17 29.87 1012 10 16 0.00 0.00
8:53 pm 20:53 Clear 93 33.9 37 2.8 14 14 S 5 7 29.88 1012 10 16 0.00 0.00
9:53 pm 21:53 Clear 86 30 41 5 20 20 NE 3 6 29.90 1013 10 16 0.00 0.00
10:53 pm 22:53 Clear 85 29.4 40 4.4 20 20 N 3 6 29.91 1013 10 16 0.00 0.00
11:53 pm 23:53 Clear 81 27.2 41 5 24 24 N 5 7 29.91 1013 10 16 0.00 0.00

Powered by AerisWeather